Regional Weather Roundup
Issued by NWS Cleveland, OH

Home | Current Version | Previous Version | Graphics & Text | Print | Product List | Glossary On
Versions: 1 2 3 4 5 6 7 8 9 10 11 12 13 14 15 16 17 18 19 20 21 22 23 24 25 26 27 28 29 30 31 32 33 34 35 36 37 38 39 40 41 42 43 44 45 46 47 48 49 50
000
ASUS41 KCLE 291312
RWRCLE
OHIO REGIONAL WEATHER ROUNDUP
NATIONAL WEATHER SERVICE WILMINGTON, OH
900 AM EDT FRI APR 29 2016

NOTE: "FAIR" INDICATES FEW OR NO CLOUDS BELOW 12,000 FEET WITH NO
SIGNIFICANT WEATHER AND/OR OBSTRUCTIONS TO VISIBILITY.

OHZ001>008-015>018-024>027-034-035-043-044-291400-
   NORTHWEST OHIO

CITY           SKY/WX    TMP DP  RH WIND       PRES   REMARKS
DEFIANCE       CLOUDY    48  37  65 NE3       30.05R
FINDLAY        CLOUDY    46  39  76 NW3       30.03R
TOLEDO EXPRESS CLOUDY    46  33  60 CALM      30.04R
TOLEDO EXEC    CLOUDY    47  36  65 NE5       30.05R
LIMA           CLOUDY    45  44  97 NW5       30.03S FOG
$$

OHZ009>014-019>023-028>033-038-089-291400-
   NORTHEAST OHIO

CITY           SKY/WX    TMP DP  RH WIND       PRES   REMARKS
CLE-HOPKINS    CLOUDY    49  46  90 W5        30.02S FOG
CLE-LAKEFRONT  LGT RAIN  49  46  90 CALM      29.99S FOG
CUY CO. ARPT   LGT RAIN  48  46  93 SE7       29.99F FOG
LORAIN-ELYRIA  CLOUDY    47  44  90 N6        30.00S FOG
ASHTABULA      CLOUDY    46  43  89 E5        30.00F
AKRON-CANTON   CLOUDY    47  45  93 CALM      29.99S FOG
WOOSTER        CLOUDY    48  46  93 S5        30.01R FOG
MANSFIELD      FOG       47  47 100 CALM      30.00R VSB 1/2
YOUNGSTOWN     CLOUDY    46  44  93 SE5       29.99R FOG
$$

OHZ042-051>053-060>062-070>072-077>081-291400-
  SOUTHWEST OHIO

CITY           SKY/WX    TMP DP  RH WIND       PRES   REMARKS
CINC-COVINGTON FAIR      57  51  80 W10       30.02S
CINC-LUNKEN    FAIR      58  53  84 W8        30.03S
HAMILTON       FAIR      59  51  75 SW8       30.03S
DAYTON         FOG       48  48 100 N5        30.04R VSB 1/2
WRIGHT-PAT AFB CLOUDY    50  50 100 NW7       30.03R FOG
DAYTON GENERAL CLOUDY    54  51  90 CALM      30.02R FOG
WILMINGTON     CLOUDY    53  52  96 NW8       30.01F FOG
$$

OHZ036-037-039>041-045>050-054>059-063>069-073>076-082>088-291400-
  CENTRAL AND SOUTHEAST OHIO

CITY           SKY/WX    TMP DP  RH WIND       PRES   REMARKS
COLUMBUS       CLOUDY    50  48  93 NW9       30.00S FOG
OSU AIRPORT    CLOUDY    49  48  97 NW5       30.01S FOG
BOLTON FIELD   CLOUDY    50  48  93 NW5       30.02R FOG
RICKENBACK AFB CLOUDY    52  49  92 W6        30.01R FOG
NEWARK         CLOUDY    53  49  86 NW7       30.00R FOG
MARION         FOG       46  45  96 NW7       30.02S VSB 3/4
LANCASTER      CLOUDY    53  50  89 W7        30.01S FOG
ZANESVILLE     CLOUDY    53  50  89 NE3       30.00R FOG
NEW PHILLY     CLOUDY    49  46  90 CALM      30.02R
$$



USA.gov is the U.S. government's official web portal to all federal, state and local government web resources and services.